Tyler, TX

2:52 PM CDT on May 29, 2017 (GMT -0500)
Tyler Pounds

Weather History for KTYR - November, 2012

Change the Weather History Date:

Friday, November 30, 2012

  Actual Average Record
Temperature  
Mean Temperature 60 °F 51 °F  
Max Temperature 72 °F 60 °F 80 °F (1950)
Min Temperature 48 °F 42 °F 15 °F (1976)
Degree Days  
Heating Degree Days 5 14  
Month to date heating degree days 212 295  
Since 1 July heating degree days 322 374  
Cooling Degree Days 0 0  
Month to date cooling degree days 26 18  
Year to date cooling degree days 2998 2411  
Growing Degree Days 10 (Base 50)    
Moisture  
Dew Point 54 °F    
Average Humidity 83    
Maximum Humidity 100    
Minimum Humidity 66    
Precipitation  
Precipitation 0.00 in 0.14 in 2.15 in (1991)
Month to date precipitation 0.28 4.10  
Year to date precipitation 31.83 41.55  
Snow  
Snow 0.00 in - - ()
Month to date snowfall 0.0  
Since 1 July snowfall 0.0  
Since 1 September snowfall 0.0  
Snow Depth 0.00 in    
Sea Level Pressure  
Sea Level Pressure 30.15 in    
Wind  
Wind Speed 8 mph (SSE)    
Max Wind Speed 16 mph    
Max Gust Speed 20 mph    
Visibility 7 miles    
Events Fog    
T = Trace of Precipitation, MM = Missing Value Source: NWS Daily Summary

Daily Weather History Graph

Daily Weather History Graph

Search for Another Location

Airport or City:

Trip Planner

Search our weather history database for the weather conditions in past years. The results will help you decide how hot, cold, wet, or windy it might be!

Date:

Astronomy

Nov. 30, 2012 Rise Set
Actual Time 7:04 AM CST 5:16 PM CST
Civil Twilight 6:37 AM CST 5:42 PM CST
Nautical Twilight 6:07 AM CST 6:13 PM CST
Astronomical Twilight 5:37 AM CST 6:42 PM CST
Moon 7:11 PM CST (11/30) 8:37 AM CST (11/30)
Length of Visible Light 11h 05m
Length of Day
10h 11m
Waning Gibbous, 96% of the Moon is Illuminated
Nov 30
Waning Gibbous
Dec 6
Last Quarter
Dec 13
New
Dec 19
First Quarter
Dec 28
Full

Hourly Weather History & Observations

Time (CST) Temp. Dew Point Humidity Pressure Visibility Wind Dir Wind Speed Gust Speed Precip Events Conditions
12:53 AM 52.0 °F 46.0 °F 80% 30.18 in 10.0 mi SSE 6.9 mph - N/A   Clear
1:53 AM 50.0 °F 46.0 °F 86% 30.17 in 10.0 mi SSE 5.8 mph - N/A   Clear
2:53 AM 48.9 °F 45.0 °F 86% 30.16 in 10.0 mi SSE 5.8 mph - N/A   Clear
3:53 AM 48.9 °F 45.0 °F 86% 30.16 in 9.0 mi South 4.6 mph - N/A   Clear
4:05 AM 48.2 °F 46.4 °F 93% 30.17 in 9.0 mi SSE 5.8 mph - N/A   Scattered Clouds
4:13 AM 50.0 °F 46.4 °F 87% 30.16 in 8.0 mi SSE 6.9 mph - N/A   Mostly Cloudy
4:36 AM 48.2 °F 46.4 °F 93% 30.16 in 8.0 mi SSE 5.8 mph - N/A   Mostly Cloudy
4:53 AM 48.9 °F 46.0 °F 90% 30.16 in 8.0 mi SE 5.8 mph - N/A   Mostly Cloudy
5:01 AM 50.0 °F 46.4 °F 87% 30.16 in 7.0 mi SSE 5.8 mph - N/A   Overcast
5:48 AM 53.6 °F 50.0 °F 88% 30.17 in 7.0 mi South 6.9 mph - N/A   Overcast
5:53 AM 53.1 °F 50.0 °F 89% 30.17 in 7.0 mi South 6.9 mph - N/A   Overcast
6:27 AM 53.6 °F 51.8 °F 94% 30.18 in 1.8 mi South 6.9 mph - N/A   Overcast
6:45 AM 53.6 °F 53.6 °F 100% 30.18 in 0.8 mi South 8.1 mph - N/A   Mist
6:53 AM 54.0 °F 53.1 °F 97% 30.17 in 0.8 mi SSE 6.9 mph - N/A   Mist
7:00 AM 53.6 °F 53.6 °F 100% 30.18 in 1.5 mi SSE 6.9 mph - N/A   Overcast
7:26 AM 53.6 °F 53.6 °F 100% 30.19 in 0.5 mi SSE 5.8 mph - N/A Fog Fog
7:41 AM 53.6 °F 53.6 °F 100% 30.19 in 0.2 mi SSE 5.8 mph - N/A Fog Fog
7:53 AM 55.0 °F 53.1 °F 93% 30.19 in 0.2 mi SSE 5.8 mph - N/A Fog Fog
8:21 AM 55.4 °F 53.6 °F 94% 30.20 in 0.5 mi SE 5.8 mph - N/A Fog Fog
8:53 AM 57.0 °F 55.0 °F 93% 30.20 in 1.2 mi SSE 4.6 mph - N/A   Overcast
9:09 AM 57.2 °F 55.4 °F 94% 30.21 in 2.5 mi SE 6.9 mph - N/A   Overcast
9:17 AM 57.2 °F 55.4 °F 94% 30.21 in 4.0 mi SSE 9.2 mph - N/A   Overcast
9:53 AM 57.9 °F 55.9 °F 93% 30.22 in 7.0 mi SSE 8.1 mph - N/A   Overcast
10:35 AM 62.6 °F 57.2 °F 82% 30.22 in 10.0 mi SSE 9.2 mph - N/A   Overcast
10:53 AM 63.0 °F 57.0 °F 81% 30.20 in 10.0 mi SSE 6.9 mph - N/A   Overcast
11:53 AM 66.0 °F 57.0 °F 73% 30.17 in 10.0 mi SE 6.9 mph - N/A   Overcast
12:53 PM 70.0 °F 57.9 °F 65% 30.14 in 10.0 mi South 12.7 mph - N/A   Mostly Cloudy
1:12 PM 69.8 °F 57.2 °F 64% 30.14 in 10.0 mi South 9.2 mph - N/A   Overcast
1:21 PM 69.8 °F 59.0 °F 68% 30.13 in 10.0 mi South 10.4 mph - N/A   Overcast
1:31 PM 69.8 °F 59.0 °F 68% 30.13 in 10.0 mi SSW 9.2 mph - N/A   Overcast
1:53 PM 70.0 °F 59.0 °F 68% 30.11 in 10.0 mi South 9.2 mph - N/A   Overcast
2:53 PM 70.0 °F 59.0 °F 68% 30.10 in 10.0 mi South 11.5 mph - N/A   Overcast
3:07 PM 71.6 °F 59.0 °F 64% 30.10 in 10.0 mi South 10.4 mph - N/A   Overcast
3:53 PM 70.0 °F 59.0 °F 68% 30.09 in 10.0 mi SSE 11.5 mph - N/A   Mostly Cloudy
4:22 PM 69.8 °F 59.0 °F 68% 30.09 in 10.0 mi SSE 10.4 mph - N/A   Partly Cloudy
4:53 PM 69.1 °F 59.0 °F 70% 30.09 in 10.0 mi SE 6.9 mph - N/A   Mostly Cloudy
5:53 PM 63.0 °F 57.9 °F 84% 30.10 in 10.0 mi ESE 5.8 mph - N/A   Clear
7:53 PM 64.9 °F 59.0 °F 81% 30.10 in 10.0 mi SE 12.7 mph - N/A   Partly Cloudy
8:53 PM 64.0 °F 59.0 °F 84% 30.10 in 10.0 mi SSE 8.1 mph - N/A   Clear
9:53 PM 63.0 °F 59.0 °F 87% 30.11 in 10.0 mi SSE 10.4 mph - N/A   Clear
10:24 PM 62.6 °F 59.0 °F 88% 30.13 in 10.0 mi SSE 10.4 mph - N/A   Mostly Cloudy
10:53 PM 63.0 °F 59.0 °F 87% 30.12 in 10.0 mi SSE 10.4 mph - N/A   Scattered Clouds
11:33 PM 62.6 °F 59.0 °F 88% 30.12 in 10.0 mi South 9.2 mph - N/A   Mostly Cloudy
11:50 PM 62.6 °F 59.0 °F 88% 30.12 in 10.0 mi SSE 13.8 mph - N/A   Mostly Cloudy
11:53 PM 63.0 °F 59.0 °F 87% 30.11 in 10.0 mi South 11.5 mph - N/A   Mostly Cloudy